Temperature
10 10 9 9 9 8 8 7 7 7 7 7 7 7 7 7 7 7 7 7 7 7 7 7 7 7 7 7 6 6 5 5 4 4 4 4 4 4 4 4 4 4 4
9 9 8 8 7 7 7 6 6 6 6 6 6 6 6 6 6 6 6 6 6 6 6 6 6 6 6 6 5 5 5 5 4 4 4 4 4 4 3 3 3 3 3
8 8 7 7 6 6 5 5 5 5 5 5 5 5 5 5 5 5 5 5 5 5 5 5 5 5 5 5 4 4 4 4 4 3 3 3 3 3 3 3 2 2 2
8 7 6 6 5 5 4 4 4 4 4 4 4 4 5 5 5 5 5 5 5 5 4 4 4 4 4 4 4 3 3 3 3 2 2 2 2 2 2 2 2 1 1
7 6 5 4 4 4 3 3 3 3 3 3 3 4 4 4 4 4 4 4 4 4 4 3 3 3 3 3 3 2 2 2 2 1 1 1 1 1 1 1 1 1 1
6 5 4 4 3 3 2 2 2 2 2 2 2 2 3 3 3 3 3 3 3 3 3 2 2 2 2 2 1 1 1 1 1 0 0 -0 -0 -0 -1 -1 -1 -1 -1
5 4 3 2 2 1 1 1 1 1 1 1 2 2 2 2 2 2 2 2 2 2 2 2 1 1 1 1 0 0 0 -0 -0 -1 -1 -1 -2 -2 -2 -2 -2 -2 -2
5 3 2 2 1 1 0 0 0 0 1 1 1 1 1 2 2 2 2 2 2 2 1 1 1 0 0 -0 -0 -1 -1 -1 -1 -2 -2 -2 -2 -3 -3 -3 -3 -3 -3
4 3 2 1 1 0 0 0 0 0 0 1 1 1 1 1 1 1 1 1 1 1 1 0 -0 -1 -1 -1 -1 -2 -2 -2 -2 -2 -2 -3 -3 -3 -3 -4 -4 -4 -5
4 3 2 1 1 0 0 0 0 0 0 0 1 1 1 1 1 1 1 1 0 0 -0 -0 -1 -1 -1 -2 -2 -3 -3 -3 -3 -3 -3 -3 -4 -4 -4 -4 -5 -5 -5
4 3 2 1 1 1 0 0 0 0 0 0 0 1 1 1 1 1 0 0 -0 -0 -1 -1 -1 -1 -2 -2 -3 -3 -3 -3 -4 -4 -4 -4 -4 -4 -5 -5 -5 -5 -6
3 3 2 1 1 1 0 0 0 0 0 0 0 1 1 1 0 0 0 -0 -0 -1 -1 -1 -1 -2 -2 -2 -3 -3 -3 -3 -4 -4 -4 -5 -5 -5 -5 -5 -5 -5 -6
3 3 2 2 1 1 1 0 0 0 0 1 1 1 1 1 0 0 0 -0 -0 -1 -1 -1 -2 -2 -2 -2 -3 -3 -3 -4 -4 -4 -5 -5 -5 -5 -5 -5 -5 -5 -6
3 3 2 2 1 1 1 0 1 1 1 1 1 1 1 1 0 0 0 -0 -1 -1 -1 -1 -2 -2 -2 -3 -3 -3 -3 -4 -4 -4 -5 -5 -5 -5 -5 -5 -6 -6 -6
3 2 2 2 2 1 1 1 1 1 1 1 1 0 0 1 0 0 -0 -0 -1 -1 -1 -2 -2 -2 -3 -3 -3 -3 -3 -4 -4 -4 -5 -5 -5 -5 -6 -6 -6 -6 -6
3 2 2 2 2 1 1 1 1 1 1 1 1 0 0 0 -0 -0 -0 -1 -1 -2 -2 -2 -2 -3 -3 -3 -3 -4 -4 -4 -4 -4 -5 -5 -5 -6 -6 -6 -6 -6 -6
3 2 2 2 2 2 1 1 1 1 1 1 1 0 0 -0 -0 -1 -1 -1 -2 -2 -2 -2 -3 -3 -3 -3 -3 -4 -4 -4 -4 -5 -5 -5 -6 -6 -6 -6 -7 -7 -7
3 2 2 2 2 1 1 1 1 1 0 1 0 -0 -0 -0 -1 -1 -2 -2 -2 -2 -2 -2 -3 -3 -3 -3 -4 -4 -4 -4 -5 -5 -5 -6 -6 -6 -6 -6 -7 -7 -7
2 2 2 2 2 1 1 1 1 0 0 0 -0 -0 -1 -1 -1 -2 -2 -2 -2 -2 -2 -3 -3 -3 -3 -4 -4 -4 -4 -4 -5 -5 -5 -6 -6 -6 -6 -7 -7 -7 -8
2 2 2 1 1 1 1 1 1 0 0 0 0 -0 -1 -1 -2 -2 -2 -2 -2 -2 -3 -3 -3 -3 -4 -4 -4 -4 -4 -5 -5 -5 -6 -6 -6 -7 -7 -7 -7 -8 -8
2 2 1 1 1 1 1 1 0 0 0 0 0 -0 -1 -2 -2 -2 -2 -3 -3 -3 -3 -3 -4 -4 -4 -4 -4 -4 -5 -5 -5 -6 -6 -6 -6 -7 -7 -7 -8 -8 -8
1 1 1 1 1 1 0 0 0 -0 -0 -0 -0 -1 -1 -2 -2 -2 -3 -3 -3 -4 -4 -4 -4 -4 -4 -4 -5 -5 -5 -5 -5 -6 -6 -6 -7 -7 -7 -8 -8 -8 -9
1 0 0 0 0 -0 -0 -0 -0 -0 -0 -1 -1 -1 -1 -2 -2 -3 -3 -3 -4 -4 -4 -4 -4 -4 -4 -5 -5 -5 -5 -5 -6 -6 -7 -7 -7 -7 -8 -8 -8 -9 -9
-0 -0 -0 -0 -0 -0 -1 -1 -1 -1 -1 -1 -1 -2 -2 -2 -3 -3 -3 -4 -4 -4 -4 -4 -4 -4 -5 -5 -5 -5 -5 -6 -6 -6 -7 -7 -7 -8 -8 -8 -8 -9 -9
-0 -1 -1 -1 -1 -1 -1 -1 -1 -1 -2 -2 -2 -2 -3 -3 -3 -4 -4 -4 -4 -4 -4 -5 -5 -5 -5 -5 -5 -5 -6 -6 -6 -7 -7 -8 -8 -8 -8 -9 -9 -9 -9
-1 -1 -1 -1 -1 -2 -2 -2 -2 -2 -3 -3 -3 -3 -3 -4 -4 -4 -4 -4 -4 -5 -5 -5 -5 -5 -5 -5 -5 -6 -6 -6 -7 -7 -8 -8 -8 -9 -9 -9 -9 -9 -9
Wind_Speed
5 4 3 2 2 2 1 1 1 0 0 1 1 1 2 3 3 3 3 4 4 5 5 5 5 5 4 4 3 2 2 1 3 1 1 3 5 6 7 8 8 9 9
5 4 3 3 3 2 2 1 1 1 1 1 2 2 3 3 3 4 4 5 5 6 5 6 6 4 5 4 3 3 2 2 1 2 1 3 3 5 6 6 7 8 9
5 5 4 4 3 3 2 2 2 2 2 2 3 3 3 3 4 4 5 6 6 6 6 6 6 5 5 4 4 4 3 2 2 0 1 2 2 4 4 4 5 6 7
6 5 5 4 4 3 3 3 3 3 3 3 4 4 4 4 4 5 5 6 7 7 7 7 6 6 6 5 4 5 4 3 2 1 1 1 2 3 3 4 3 4 5
7 6 5 4 4 4 4 3 3 3 3 4 4 4 4 4 4 4 5 5 6 6 6 7 8 9 9 7 5 5 4 3 2 2 1 1 2 3 3 4 4 3 2
7 7 6 6 5 5 5 4 4 4 4 4 4 4 5 4 6 6 5 5 5 5 5 5 6 7 8 9 10 9 7 4 3 2 1 2 2 3 3 4 4 4 2
8 7 7 7 6 6 5 5 5 5 5 5 5 5 5 7 8 7 7 5 5 5 4 4 3 4 5 4 5 6 7 8 6 3 2 2 3 3 4 4 4 4 4
9 8 7 7 7 6 6 6 6 5 5 5 5 4 5 6 7 7 7 5 5 4 3 3 2 2 3 3 3 3 3 3 4 3 3 3 3 3 3 3 4 5 5
9 9 8 8 8 8 7 7 6 5 5 4 4 3 3 3 5 6 5 3 3 2 1 1 1 1 2 1 1 2 1 1 2 3 4 4 4 4 5 4 3 4 4
10 9 8 8 8 8 7 7 5 5 5 4 3 2 2 2 3 5 4 2 1 1 1 1 1 3 3 1 2 3 3 2 2 2 2 2 2 2 2 3 3 3 3
9 9 8 8 8 8 7 6 6 5 5 4 4 4 4 3 4 5 5 3 2 2 2 2 1 3 4 3 3 3 3 4 3 3 3 3 2 2 2 2 2 3 4
10 9 9 8 8 7 8 7 7 6 6 6 5 6 5 5 6 6 7 6 4 3 3 3 2 3 4 4 4 3 3 3 3 4 4 3 3 3 3 4 4 5 6
11 10 9 9 8 8 8 8 7 7 6 6 6 6 6 5 6 8 8 8 7 5 4 4 4 5 4 4 4 4 4 4 4 4 4 4 3 4 4 4 5 6 9
11 10 10 10 9 9 7 7 7 8 7 7 7 6 5 5 6 6 6 6 6 6 5 5 6 6 5 5 5 4 4 4 5 5 5 5 4 4 5 4 5 5 6
11 10 10 9 9 9 8 8 9 9 9 8 7 6 6 6 7 9 7 6 5 5 4 4 5 5 5 5 5 5 5 5 5 5 5 5 5 5 5 5 5 5 6
11 10 9 9 8 8 8 8 12 12 12 14 12 8 7 8 6 9 11 10 9 8 7 6 6 6 6 5 5 5 5 5 5 5 5 6 6 6 6 6 6 7 8
12 11 9 9 9 9 9 9 8 10 15 16 16 16 14 11 11 11 11 11 11 10 8 7 7 6 6 6 6 6 6 6 5 6 6 6 6 6 7 7 7 7 8
12 11 10 9 9 9 9 9 8 8 7 8 12 17 17 16 14 13 12 10 9 9 8 8 8 7 7 7 7 7 6 6 6 6 7 7 7 7 7 8 8 9 9
11 9 10 9 9 9 9 9 8 9 8 6 5 8 14 15 15 15 13 10 9 8 8 8 8 8 7 7 7 7 7 7 7 7 7 8 7 7 8 8 9 12 11
10 11 10 8 8 8 8 8 8 9 9 8 8 7 7 8 8 10 10 10 10 9 9 8 8 8 8 7 7 7 7 7 8 8 8 8 8 8 9 10 10 10 10
7 8 12 9 8 8 8 9 9 9 9 9 8 9 11 9 9 9 9 9 9 9 9 9 8 8 8 7 7 8 9 8 8 8 8 8 8 8 9 9 10 10 10
6 6 7 8 8 8 8 8 8 9 9 9 7 7 14 10 8 8 8 8 8 8 8 8 8 8 8 7 7 8 8 9 9 8 8 8 8 9 9 10 10 10 11
4 5 5 6 6 8 9 8 8 8 8 8 7 7 8 9 9 9 8 8 8 8 8 8 8 8 8 9 10 9 9 9 9 9 9 9 9 9 10 11 12 13 13
3 4 5 5 5 6 6 7 7 7 8 8 8 8 8 8 8 9 8 7 7 7 8 8 9 10 11 10 10 11 13 13 12 11 12 11 11 10 11 12 13 14 14
3 3 4 4 4 5 5 6 6 7 7 7 7 7 7 8 8 8 7 7 8 8 9 9 9 10 12 14 13 13 15 17 17 14 13 11 13 14 14 15 14 15 15
2 3 3 3 4 4 5 5 6 6 6 7 7 7 7 7 7 7 7 7 7 7 8 8 11 12 13 13 15 16 18 19 20 20 17 13 14 14 15 14 17 16 17
Wind_Direction
155 153 159 156 155 166 170 164 171 148 102 69 57 54 49 46 46 63 68 67 74 68 59 62 58 49 50 41 40 41 30 315 260 277 13 355 358 1 3 9 12 13 16
159 162 163 162 170 179 170 160 157 137 99 87 86 78 68 62 63 75 79 74 76 73 67 66 60 57 57 48 45 46 38 7 290 263 333 354 2 3 359 9 16 21 24
166 172 174 177 181 183 171 158 148 131 112 99 95 89 83 80 80 82 88 85 80 76 69 67 62 60 59 52 48 43 31 20 4 301 350 3 1 1 356 5 16 20 24
174 180 184 182 178 170 160 153 142 131 121 107 98 94 93 91 90 92 95 94 87 77 69 63 56 54 53 49 44 36 27 29 35 47 44 20 9 358 357 356 359 9 11
179 183 181 173 166 162 157 149 137 127 118 113 109 103 101 96 94 103 102 101 97 88 75 65 57 51 49 49 43 31 23 22 29 40 38 22 18 4 2 351 342 339 6
182 182 174 173 170 167 160 151 142 131 119 113 111 108 100 93 100 100 107 106 98 94 85 70 62 52 50 54 52 45 36 30 27 22 22 21 15 3 354 349 343 335 328
183 179 177 178 175 169 161 157 151 138 128 121 114 110 105 103 104 102 98 100 96 87 80 73 65 56 45 46 54 53 52 49 39 15 25 18 1 357 349 340 346 334 322
182 182 181 180 176 168 165 161 152 144 140 131 125 122 117 111 110 110 107 98 96 87 76 67 62 48 39 16 28 34 38 44 33 18 16 2 345 333 319 312 316 307 295
185 184 182 180 176 172 171 164 156 151 143 140 136 132 127 123 130 135 130 124 114 107 91 51 5 12 44 358 355 344 335 35 43 18 4 354 348 336 321 302 309 312 308
186 183 179 179 178 176 170 162 159 157 153 153 147 151 164 178 166 167 168 168 163 177 198 238 322 330 341 307 304 309 315 329 327 320 304 296 305 324 324 301 296 292 297
175 172 174 177 177 171 164 162 159 162 164 174 181 198 213 222 210 204 203 218 223 233 248 260 272 311 315 310 292 295 305 305 300 302 301 299 293 294 304 312 304 275 275
168 171 174 175 172 170 168 168 172 177 183 194 207 217 220 223 229 224 224 228 234 245 255 260 269 289 301 302 291 297 286 271 284 284 284 287 294 300 303 298 289 277 263
171 177 178 177 177 178 181 182 184 191 201 207 213 221 219 215 220 228 233 233 230 240 254 261 271 277 283 279 275 283 270 265 274 275 279 285 289 289 287 280 268 260 261
178 181 181 183 185 187 191 195 198 200 206 211 215 220 220 217 217 215 219 227 232 240 247 245 254 260 264 271 269 257 256 264 272 275 281 284 284 274 270 277 282 288 284
184 185 186 190 192 196 202 207 209 215 215 212 215 218 217 222 219 211 211 216 223 232 239 244 247 250 254 253 252 254 253 251 254 261 269 273 273 274 272 272 271 275 269
189 191 192 194 197 200 204 215 225 226 228 231 233 230 230 233 220 215 220 227 232 234 238 247 251 253 256 259 259 257 254 252 252 255 258 263 268 271 273 268 260 263 269
199 196 195 197 200 202 206 211 218 224 230 234 233 232 231 229 226 226 228 232 237 237 243 248 251 254 255 254 253 253 254 252 249 251 255 257 260 263 265 266 265 264 267
207 204 201 202 203 205 207 211 214 213 213 224 228 230 231 230 229 229 230 233 237 234 238 245 250 251 251 251 251 251 253 251 245 247 250 251 251 255 259 261 261 262 267
210 210 208 207 206 208 208 210 214 217 221 222 212 222 226 229 231 232 228 231 234 235 235 240 244 246 246 247 248 248 248 250 250 249 251 250 248 249 254 258 261 263 263
217 212 206 208 207 208 209 210 214 217 220 222 222 217 200 206 219 224 223 226 232 237 237 239 240 239 240 242 243 244 246 248 248 246 249 250 248 247 252 257 259 262 262
216 213 208 212 213 210 210 213 217 218 221 225 226 215 201 206 217 222 222 224 229 233 236 238 238 237 236 236 238 241 244 249 249 249 250 250 249 249 252 255 258 259 263
216 213 210 214 214 212 215 217 219 222 225 229 230 221 217 217 221 224 226 228 230 233 234 235 236 236 233 232 233 238 242 246 247 246 247 248 249 251 253 256 258 260 261
218 216 215 217 215 217 219 218 220 224 228 228 225 217 215 219 223 225 228 229 229 230 231 230 235 238 236 233 233 234 239 245 247 246 249 253 253 254 255 257 259 262 262
224 222 222 222 218 219 222 224 223 225 228 228 226 223 221 223 226 228 230 231 231 232 232 232 235 239 238 238 239 238 241 246 249 248 248 252 256 258 258 259 261 261 262
233 230 229 229 225 226 229 230 229 229 229 229 228 226 226 226 229 231 232 232 235 237 237 237 240 243 244 243 244 246 248 251 252 251 248 248 253 254 257 260 261 264 263
246 241 237 234 233 234 234 236 237 235 234 233 230 230 229 229 231 233 234 234 236 239 241 241 241 244 248 251 252 253 257 261 262 260 258 258 259 261 262 263 266 265 269
Height
1512 1513 1513 1513 1513 1513 1512 1512 1512 1511 1511 1510 1509 1508 1508 1507 1506 1505 1504 1504 1504 1503 1503 1502 1502 1501 1501 1501 1500 1500 1500 1500 1499 1498 1496 1495 1493 1491 1490 1488 1487 1485 1484
1509 1509 1509 1509 1509 1508 1508 1508 1508 1507 1507 1506 1506 1505 1504 1504 1503 1503 1502 1501 1501 1500 1500 1500 1499 1499 1498 1498 1497 1497 1496 1496 1495 1494 1493 1491 1490 1489 1487 1486 1484 1483 1482
1505 1505 1505 1505 1504 1504 1504 1504 1504 1503 1503 1503 1502 1502 1501 1501 1501 1500 1499 1499 1498 1498 1497 1497 1497 1496 1496 1495 1494 1494 1493 1493 1492 1491 1490 1488 1487 1486 1485 1484 1482 1481 1481
1501 1501 1501 1500 1500 1500 1500 1500 1500 1500 1499 1499 1499 1499 1498 1498 1498 1498 1497 1497 1496 1496 1495 1495 1494 1494 1493 1493 1492 1491 1491 1490 1489 1488 1487 1486 1485 1483 1483 1481 1480 1480 1479
1497 1497 1497 1496 1496 1496 1496 1496 1496 1496 1496 1496 1496 1496 1496 1496 1496 1496 1495 1495 1494 1494 1494 1493 1492 1492 1491 1490 1490 1489 1488 1487 1487 1486 1485 1483 1482 1481 1480 1479 1478 1477 1476
1492 1493 1493 1493 1492 1492 1493 1493 1493 1494 1494 1494 1494 1494 1494 1494 1494 1494 1494 1493 1493 1492 1492 1491 1491 1490 1489 1488 1487 1487 1486 1485 1484 1483 1482 1481 1480 1479 1478 1477 1476 1475 1474
1488 1489 1489 1489 1489 1489 1490 1491 1491 1492 1492 1492 1493 1493 1493 1493 1493 1493 1492 1492 1492 1491 1490 1490 1489 1488 1487 1486 1485 1484 1483 1482 1482 1481 1480 1479 1477 1476 1475 1474 1473 1472 1471
1484 1484 1485 1485 1486 1486 1487 1488 1489 1490 1490 1491 1491 1492 1492 1492 1492 1491 1491 1491 1490 1489 1489 1488 1487 1486 1485 1484 1483 1482 1481 1479 1479 1478 1477 1476 1475 1474 1473 1472 1471 1469 1468
1480 1481 1481 1482 1483 1484 1485 1486 1488 1488 1489 1490 1490 1491 1491 1491 1491 1490 1490 1490 1489 1488 1487 1486 1485 1484 1483 1482 1481 1480 1479 1477 1476 1475 1474 1473 1472 1471 1470 1469 1468 1467 1466
1477 1477 1478 1479 1480 1482 1483 1485 1486 1487 1488 1488 1489 1489 1490 1490 1490 1489 1489 1488 1487 1486 1485 1484 1483 1482 1481 1480 1479 1478 1477 1476 1474 1473 1472 1471 1470 1469 1468 1467 1466 1465 1464
1473 1474 1475 1477 1478 1480 1481 1483 1484 1485 1486 1487 1488 1488 1488 1488 1488 1488 1487 1487 1486 1485 1484 1483 1481 1480 1479 1478 1477 1476 1475 1474 1472 1471 1470 1469 1468 1467 1466 1465 1464 1463 1462
1470 1471 1473 1474 1476 1477 1479 1481 1482 1483 1484 1485 1486 1486 1486 1486 1486 1486 1485 1485 1484 1483 1482 1481 1479 1478 1477 1476 1475 1474 1473 1472 1470 1469 1468 1467 1466 1464 1463 1462 1461 1460 1459
1467 1469 1470 1472 1473 1475 1477 1478 1480 1481 1482 1483 1483 1484 1484 1484 1484 1484 1483 1482 1481 1480 1480 1478 1477 1476 1475 1474 1473 1471 1470 1469 1468 1467 1466 1464 1463 1461 1460 1459 1457 1456 1455
1465 1466 1468 1469 1471 1472 1474 1475 1477 1478 1479 1480 1481 1481 1481 1482 1481 1481 1480 1480 1479 1478 1477 1476 1475 1473 1472 1471 1470 1469 1467 1466 1465 1464 1462 1461 1460 1458 1457 1455 1454 1452 1450
1462 1463 1465 1466 1468 1469 1471 1472 1474 1475 1476 1477 1478 1478 1478 1478 1478 1478 1477 1477 1476 1475 1474 1473 1472 1471 1469 1468 1467 1465 1464 1463 1462 1460 1459 1457 1456 1454 1453 1451 1449 1448 1446
1458 1459 1461 1463 1464 1466 1467 1469 1470 1471 1472 1473 1474 1474 1474 1475 1475 1474 1474 1473 1472 1471 1470 1469 1468 1467 1466 1465 1463 1462 1461 1459 1457 1456 1455 1453 1451 1450 1448 1446 1445 1443 1441
1454 1455 1457 1458 1460 1461 1463 1464 1466 1467 1468 1469 1469 1470 1470 1470 1470 1470 1470 1469 1468 1467 1466 1465 1464 1463 1462 1460 1459 1458 1456 1455 1453 1451 1450 1448 1446 1445 1443 1441 1439 1437 1435
1449 1451 1452 1454 1455 1457 1458 1459 1460 1461 1462 1463 1464 1464 1465 1465 1465 1465 1465 1464 1463 1462 1461 1460 1459 1458 1457 1456 1454 1453 1451 1450 1448 1446 1445 1443 1441 1439 1437 1435 1433 1431 1429
1444 1445 1447 1448 1449 1451 1452 1453 1454 1455 1456 1457 1458 1458 1459 1459 1459 1459 1459 1458 1457 1457 1456 1455 1454 1453 1452 1450 1449 1447 1446 1444 1443 1441 1439 1437 1435 1433 1430 1429 1426 1424 1422
1439 1440 1441 1442 1443 1445 1446 1447 1448 1448 1449 1450 1450 1451 1452 1452 1452 1452 1452 1451 1451 1450 1450 1449 1448 1447 1446 1445 1443 1441 1440 1438 1437 1435 1433 1431 1428 1426 1424 1422 1419 1417 1414
1433 1434 1435 1436 1437 1438 1439 1440 1441 1442 1442 1442 1443 1444 1445 1445 1445 1445 1445 1445 1444 1444 1443 1442 1441 1441 1439 1438 1437 1435 1433 1432 1430 1428 1426 1424 1421 1419 1417 1414 1412 1410 1407
1428 1428 1429 1430 1431 1432 1432 1433 1434 1434 1435 1435 1436 1436 1437 1436 1437 1437 1437 1437 1437 1437 1436 1435 1434 1434 1433 1431 1430 1428 1426 1425 1423 1421 1419 1416 1414 1412 1409 1407 1405 1402 1400
1423 1423 1423 1424 1425 1426 1426 1427 1427 1427 1428 1428 1428 1428 1429 1429 1429 1429 1429 1430 1429 1429 1429 1428 1427 1426 1426 1424 1423 1421 1419 1417 1416 1413 1411 1409 1406 1404 1402 1399 1397 1394 1392
1418 1418 1418 1419 1419 1420 1420 1420 1420 1420 1420 1421 1421 1421 1421 1421 1422 1422 1422 1422 1422 1422 1421 1421 1420 1419 1418 1417 1415 1414 1412 1410 1408 1406 1404 1401 1398 1396 1393 1391 1388 1386 1383
1414 1413 1413 1413 1414 1414 1414 1414 1414 1414 1414 1414 1414 1414 1414 1414 1414 1415 1415 1415 1415 1415 1414 1414 1413 1412 1411 1410 1408 1406 1404 1402 1400 1398 1395 1393 1390 1387 1385 1382 1380 1377 1375
1409 1409 1409 1408 1408 1408 1408 1408 1407 1407 1407 1407 1407 1407 1407 1407 1408 1408 1409 1409 1408 1408 1407 1407 1406 1405 1404 1402 1400 1399 1397 1394 1392 1390 1388 1385 1382 1379 1377 1374 1371 1369 1366